Location: Boda
(47.1872°N, 9.5454°E)
Time: 08:31:31
(UTC+00:00)

SL-16 R/B - Pass Details

Date: 14 May 2021
Orbit: 843 x 845 km, 71.0° (Epoch: 16 June)

Event Time Altitude Azimuth Distance (km) Brightness Sun altitude
Exits shadow 02:21:17 - 174° (S) 3,130 4.8 -12.4°
Reaches altitude 10° 02:23:13 10° 167° (SSE) 2,456 4.3 -12.2°
Maximum altitude 02:28:11 33° 105° (ESE) 1,388 3.7 -11.6°
Drops below altitude 10° 02:33:11 10° 43° (NE) 2,474 6.2 -10.9°
Sets 02:35:51 0° 35° (NE) 3,414 7.2 -10.6°
